Regional Weather Roundup
Issued by NWS

Home | Current Version | Previous Version | Text Only | Print | Product List | Glossary On
Versions: 1 2 3 4 5 6 7 8 9 10 11 12 13 14 15 16 17 18 19 20 21 22 23 24 25 26 27 28 29 30 31 32 33 34 35 36 37 38 39 40 41 42 43 44 45 46 47 48 49 50
000
ASUS46 KPQR 260110
RWROR

OREGON REGIONAL WEATHER ROUNDUP
NATIONAL WEATHER SERVICE PORTLAND OR
600 PM PDT SAT MAR 25 2017

NOTE: "FAIR" INDICATES FEW OR NO CLOUDS BELOW 12,000 FEET WITH
NO SIGNIFICANT WEATHER AND/OR OBSTRUCTIONS TO VISIBILITY.

ORZ001>013-260200-
NORTHWEST OREGON


CITY           SKY/WX    TMP DP  RH WIND       PRES   REMARKS
ASTORIA        CLOUDY    48  35  60 W3        30.09F
NEWPORT        LGT RAIN  48  41  76 SW10      30.14F
PORTLAND       CLOUDY    51  41  68 NW7       30.10F
VANCOUVER WA   CLOUDY    52  42  69 W6        30.09F
SCAPPOOSE      CLOUDY    48  44  86 N3        30.10F
HILLSBORO      CLOUDY    50  41  71 W5        30.09F
AURORA         CLOUDY    52  39  61 VRB5      30.10F
MCMINNVILLE    CLOUDY    51  40  65 SW5       30.10F
SALEM          CLOUDY    52  38  58 W9        30.09F
CORVALLIS      CLOUDY    52  37  58 W5        30.11F
EUGENE         CLOUDY    51  41  68 W10       30.11F
$$

ORZ021-028-260200-
SOUTHWEST OREGON


CITY           SKY/WX    TMP DP  RH WIND       PRES   REMARKS
NORTH BEND     CLOUDY    52  43  71 W10       30.14F
BROOKINGS      MOSUNNY   50  39  66 VRB3      30.15F
ROSEBURG       PTSUNNY   53  39  59 W6        30.09F
SEXTON SUMMIT  CLOUDY    38  33  82 VRB6      30.05F WCI  33
MEDFORD        CLOUDY    54  39  57 NW15      30.07S
$$

ORZ014>016-041-260200-
COLUMBIA GORGE


CITY           SKY/WX    TMP DP  RH WIND       PRES   REMARKS
TROUTDALE      CLOUDY    53  39  59 SW8       30.09F
THE DALLES     CLOUDY    54  37  52 NW21G29   30.05S
$$

ORZ029>031-041-044-049-050-061>064-502-503-505>511-260200-
EASTERN OREGON


CITY           SKY/WX    TMP DP  RH WIND       PRES   REMARKS
REDMOND        CLOUDY    50  28  42 NW12      30.00S
BEND           CLOUDY    50  27  40 SW10      30.00S
PRINEVILLE     PTSUNNY   48  30  49 NW13G18   29.99S
KLAMATH FALLS  PTSUNNY   49  27  42 W9        30.02F
LAKEVIEW       PTSUNNY   48  25  40 SW9       30.03R
HERMISTON      PTSUNNY   55  36  48 W12       30.02S
PENDLETON      PTSUNNY   52  39  61 VRB3      30.02F
JOHN DAY       PTSUNNY   51  28  40 CALM      29.99S
MEACHAM        CLOUDY    41  32  70 CALM      30.01S
LA GRANDE      PTSUNNY   48  34  57 N8        30.00S
BAKER CITY     PTSUNNY   47  34  60 N9        29.99R
BURNS          PTSUNNY   48  25  40 SW12      29.99F
ROME             N/A     55  22  27 VRB3      29.97F
ONTARIO        MOSUNNY   57  34  41 CALM      29.99F
$$



USA.gov is the U.S. government's official web portal to all federal, state and local government web resources and services.